User: anonymous   Login
Location: Unspecified
(0.0000°N, 0.0000°E)
Time: 06:08:33
(UTC+00:00)
Language:

ASTRA 1KR - Orbit

View from above orbital plane
View from above orbital plane
View from above satellite
View from above satellite

Ground track
Ground track

The orbit data is extracted from the following two-line orbital elements,

1 29055U 06012A   15210.21659313  .00000112  00000-0  00000+0 0  9992
2 29055 000.0147 352.4042 0003027 167.2659 244.0604 01.00274704 33891
Epoch (UTC): 29 July 2015 05:11:53
Eccentricity: 0.0003027
inclination: 0.0147°
perigee height: 35772 km
apogee height: 35798 km
right ascension of ascending node: 352.4042°
argument of perigee: 167.2659°
revolutions per day: 1.00274704
mean anomaly at epoch: 244.0604°
orbit number at epoch: 3389

The dashed part of the orbit path shows where the satellite is in the earth's shadow,  

DLR